Terminal Aerodrome Forecast
Issued by NWS Greer, SC

Home | Current Version | Previous Version | Text Only | Print | Product List | Glossary On
Versions: 1 2 3 4 5 6 7 8 9 10 11 12 13 14 15 16 17 18 19 20 21 22 23 24 25 26 27 28 29 30 31 32 33 34 35 36 37 38 39 40 41 42 43 44 45 46 47 48 49 50
000
FTUS42 KGSP 210215 AAB
TAFCLT
TAF AMD
KCLT 210215Z 2102/2206 05005KT P6SM OVC070
     FM210800 16003KT 5SM BR OVC015
     FM211100 15003KT 1/2SM FG OVC003
     FM211400 18005KT 1SM BR OVC004
     FM211600 19006KT P6SM OVC008
     FM211900 20007KT P6SM BKN035=

USA.gov is the U.S. government's official web portal to all federal, state and local government web resources and services.